Location: Fairview
(40.8165°N, 122.7667°W)
Time: 23:53:58
(UTC+00:00)

USA 81 - Pass Details

Date: 15 September 2024
Orbit: 784 x 786 km, 85.0° (Epoch: 06 October)

Event Time Altitude Azimuth Distance (km) Brightness Sun altitude
Rises 12:53:38 0° 137° (SE) 3,265 7.7 -11.8°
Reaches altitude 10° 12:56:51 10° 116° (ESE) 2,342 7.3 -11.2°
Maximum altitude 12:59:57 16° 80° (E) 1,960 7.5 -10.6°
Drops below altitude 10° 13:03:02 10° 44° (NE) 2,351 7.5 -10.1°
Sets 13:06:16 0° 23° (NNE) 3,285 7.8 -9.5°
